Oklahoma City / Page Muni, OK

3:45 AM CDT on April 26, 2018 (GMT -0500)
Oklahoma City / Page Muni

Weather History for KRCE - March, 2013

Change the Weather History Date:

Saturday, March 2, 2013

  Actual Average (KPWA) Record (KPWA)
Temperature  
Mean Temperature 36 °F -  
Max Temperature 48 °F 61 °F 83 °F (1976)
Min Temperature 23 °F 35 °F 10 °F (1962)
Degree Days  
Heating Degree Days 30    
Moisture  
Dew Point 25 °F    
Average Humidity 75    
Maximum Humidity 100    
Minimum Humidity 46    
Precipitation  
Precipitation 0.00 in - - ()
Sea Level Pressure  
Sea Level Pressure 30.32 in    
Wind  
Wind Speed 7 mph (NNW)    
Max Wind Speed 10 mph    
Max Gust Speed -    
Visibility 9 miles    
Events      
Averages and records for this station are not official NWS values.
T = Trace of Precipitation, MM = Missing Value Source: NWS Daily Summary

Daily Weather History Graph

Daily Weather History Graph

Search for Another Location

Airport or City:

Astronomy

Mar. 02, 2013 Rise Set
Actual Time 6:59 AM CST 6:27 PM CST
Civil Twilight 6:33 AM CST 6:53 PM CST
Nautical Twilight 6:04 AM CST 7:22 PM CST
Astronomical Twilight 5:34 AM CST 7:52 PM CST
Moon 11:55 PM CST (3/2) 9:40 AM CST (3/2)
Length of Visible Light 12h 19m
Length of Day
11h 28m
Waning Gibbous, 74% of the Moon is Illuminated
Mar 2
Waning Gibbous
Mar 4
Last Quarter
Mar 11
New
Mar 19
First Quarter
Mar 27
Full

Hourly Weather History & Observations

Time (CST) Temp. Windchill Dew Point Humidity Pressure Visibility Wind Dir Wind Speed Gust Speed Precip Events Conditions
12:15 AM 24.8 °F 16.1 °F 24.8 °F 100% 30.35 in 8.0 mi North 8.1 mph - N/A   Partly Cloudy
12:35 AM 24.8 °F 16.1 °F 24.8 °F 100% 30.35 in 8.0 mi North 8.1 mph - N/A   Mostly Cloudy
12:55 AM 24.8 °F 16.1 °F 24.8 °F 100% 30.36 in 7.0 mi North 8.1 mph - N/A   Scattered Clouds
1:15 AM 24.8 °F 16.9 °F 24.8 °F 100% 30.36 in 8.0 mi North 6.9 mph - N/A   Clear
1:35 AM 24.8 °F 16.1 °F 24.8 °F 100% 30.37 in 8.0 mi NNW 8.1 mph - N/A   Clear
1:55 AM 24.8 °F 16.1 °F 23.0 °F 93% 30.38 in 8.0 mi North 8.1 mph - N/A   Scattered Clouds
2:15 AM 23.0 °F 14.7 °F 23.0 °F 100% 30.38 in 7.0 mi North 6.9 mph - N/A   Partly Cloudy
2:35 AM 23.0 °F 13.9 °F 23.0 °F 100% 30.37 in 7.0 mi North 8.1 mph - N/A   Clear
2:55 AM 23.0 °F 13.9 °F 23.0 °F 100% 30.37 in 7.0 mi North 8.1 mph - N/A   Clear
3:15 AM 23.0 °F 13.9 °F 23.0 °F 100% 30.37 in 7.0 mi NNW 8.1 mph - N/A   Clear
3:35 AM 23.0 °F 14.7 °F 23.0 °F 100% 30.36 in 6.0 mi NNW 6.9 mph - N/A   Clear
3:55 AM 23.0 °F 13.9 °F 23.0 °F 100% 30.36 in 7.0 mi NNW 8.1 mph - N/A   Clear
4:15 AM 23.0 °F 14.7 °F 23.0 °F 100% 30.36 in 7.0 mi NNW 6.9 mph - N/A   Clear
4:35 AM 23.0 °F 14.7 °F 23.0 °F 100% 30.36 in 7.0 mi NNW 6.9 mph - N/A   Clear
4:55 AM 23.0 °F 14.7 °F 23.0 °F 100% 30.36 in 7.0 mi NNW 6.9 mph - N/A   Clear
5:15 AM 23.0 °F 14.7 °F 23.0 °F 100% 30.37 in 7.0 mi NW 6.9 mph - N/A   Clear
5:35 AM 23.0 °F 13.9 °F 23.0 °F 100% 30.37 in 6.0 mi NW 8.1 mph - N/A   Clear
5:55 AM 23.0 °F 15.8 °F 23.0 °F 100% 30.38 in 5.0 mi NNW 5.8 mph - N/A   Clear
6:15 AM 23.0 °F 14.7 °F 23.0 °F 100% 30.38 in 6.0 mi NNW 6.9 mph - N/A   Clear
6:35 AM 23.0 °F - 23.0 °F 100% 30.38 in 6.0 mi North - - N/A   Clear
6:55 AM 23.0 °F - 23.0 °F 100% 30.39 in 5.0 mi North - - N/A   Clear
7:15 AM 23.0 °F - 23.0 °F 100% 30.39 in 5.0 mi North - - N/A   Clear
7:35 AM 24.8 °F - 23.0 °F 93% 30.39 in 5.0 mi North - - N/A   Clear
7:55 AM 24.8 °F - 24.8 °F 100% 30.39 in 5.0 mi North - - N/A   Clear
8:15 AM 26.6 °F - 24.8 °F 93% 30.39 in 7.0 mi North - - N/A   Clear
8:35 AM 28.4 °F 20.4 °F 24.8 °F 86% 30.40 in 9.0 mi NNW 8.1 mph - N/A   Clear
8:55 AM 28.4 °F 20.4 °F 23.0 °F 80% 30.41 in 10.0 mi NNW 8.1 mph - N/A   Clear
9:15 AM 30.2 °F 23.4 °F 24.8 °F 80% 30.42 in 10.0 mi NNW 6.9 mph - N/A   Clear
9:35 AM 32.0 °F 25.6 °F 23.0 °F 69% 30.41 in 10.0 mi NNW 6.9 mph - N/A   Clear
9:55 AM 32.0 °F 25.6 °F 23.0 °F 69% 30.40 in 10.0 mi NNW 6.9 mph - N/A   Clear
10:15 AM 32.0 °F 24.8 °F 23.0 °F 69% 30.40 in 10.0 mi NNW 8.1 mph - N/A   Clear
10:55 AM 35.6 °F 30.7 °F 23.0 °F 60% 30.39 in 10.0 mi NW 5.8 mph - N/A   Clear
11:15 AM 35.6 °F 29.9 °F 24.8 °F 65% 30.38 in 10.0 mi WNW 6.9 mph - N/A   Clear
11:35 AM 37.4 °F 33.8 °F 23.0 °F 56% 30.38 in 10.0 mi North 4.6 mph - N/A   Clear
11:55 AM 39.2 °F 34.2 °F 23.0 °F 52% 30.37 in 10.0 mi NE 6.9 mph - N/A   Clear
12:15 PM 39.2 °F - 21.2 °F 49% 30.36 in 10.0 mi Calm Calm - N/A   Clear
12:35 PM 41.0 °F 37.1 °F 23.0 °F 49% 30.35 in 10.0 mi WNW 5.8 mph - N/A   Clear
12:55 PM 41.0 °F - 24.8 °F 53% 30.33 in 10.0 mi North - - N/A   Scattered Clouds
1:15 PM 41.0 °F - 24.8 °F 53% 30.31 in 10.0 mi Calm Calm - N/A   Mostly Cloudy
1:35 PM 42.8 °F 41.1 °F 23.0 °F 46% 30.31 in 10.0 mi North 3.5 mph - N/A   Partly Cloudy
1:55 PM 44.6 °F - 24.8 °F 46% 30.30 in 10.0 mi North - - N/A   Clear
2:15 PM 44.6 °F 41.4 °F 26.6 °F 49% 30.29 in 10.0 mi WSW 5.8 mph - N/A   Clear
2:55 PM 46.4 °F - 26.6 °F 46% 30.28 in 10.0 mi Calm Calm - N/A   Clear
3:15 PM 46.4 °F - 26.6 °F 46% 30.28 in 10.0 mi Calm Calm - N/A   Clear
3:35 PM 46.4 °F - 28.4 °F 50% 30.27 in 10.0 mi Calm Calm - N/A   Clear
4:15 PM 48.2 °F - 28.4 °F 46% 30.26 in 10.0 mi Calm Calm - N/A   Clear
4:35 PM 48.2 °F - 28.4 °F 46% 30.25 in 10.0 mi Calm Calm - N/A   Clear
4:55 PM 48.2 °F - 30.2 °F 50% 30.24 in 10.0 mi North - - N/A   Clear
5:15 PM 48.2 °F - 28.4 °F 46% 30.24 in 10.0 mi North - - N/A   Clear
5:35 PM 48.2 °F - 30.2 °F 50% 30.23 in 10.0 mi North - - N/A   Clear
5:55 PM 46.4 °F - 30.2 °F 53% 30.23 in 10.0 mi North - - N/A   Clear
6:15 PM 44.6 °F - 32.0 °F 61% 30.23 in 10.0 mi North - - N/A   Clear
6:35 PM 44.6 °F 41.4 °F 30.2 °F 57% 30.23 in 10.0 mi SE 5.8 mph - N/A   Clear
6:55 PM 41.0 °F 36.4 °F 30.2 °F 65% 30.23 in 10.0 mi SE 6.9 mph - N/A   Clear
7:15 PM 41.0 °F 36.4 °F 30.2 °F 65% 30.23 in 10.0 mi SE 6.9 mph - N/A   Clear
7:35 PM 41.0 °F 36.4 °F 28.4 °F 61% 30.22 in 10.0 mi SE 6.9 mph - N/A   Clear
7:55 PM 39.2 °F 33.6 °F 28.4 °F 65% 30.22 in 10.0 mi SE 8.1 mph - N/A   Scattered Clouds
8:15 PM 39.2 °F 33.6 °F 28.4 °F 65% 30.21 in 10.0 mi SE 8.1 mph - N/A   Partly Cloudy
8:55 PM 37.4 °F 31.4 °F 28.4 °F 70% 30.22 in 10.0 mi SSE 8.1 mph - N/A   Clear
9:15 PM 37.4 °F 30.8 °F 28.4 °F 70% 30.22 in 10.0 mi SSE 9.2 mph - N/A   Partly Cloudy
9:55 PM 35.6 °F 28.6 °F 28.4 °F 75% 30.21 in 10.0 mi SSE 9.2 mph - N/A   Clear
10:15 PM 35.6 °F 28.6 °F 28.4 °F 75% 30.21 in 10.0 mi SSE 9.2 mph - N/A   Clear
10:35 PM 35.6 °F 28.6 °F 26.6 °F 70% 30.21 in 10.0 mi SSE 9.2 mph - N/A   Clear
10:55 PM 35.6 °F 28.0 °F 26.6 °F 70% 30.20 in 10.0 mi SSE 10.4 mph - N/A   Clear
11:15 PM 37.4 °F 30.3 °F 26.6 °F 65% 30.19 in 10.0 mi South 10.4 mph - N/A   Clear
11:35 PM 37.4 °F 30.8 °F 26.6 °F 65% 30.19 in 10.0 mi South 9.2 mph - N/A   Clear
11:55 PM 37.4 °F 30.3 °F 28.4 °F 70% 30.17 in 10.0 mi South 10.4 mph - N/A   Clear